Date,TemperatureHighF,TemperatureAvgF,TemperatureLowF,DewpointHighF,DewpointAvgF,DewpointLowF,HumidityHigh,HumidityAvg,HumidityLow,PressureMaxIn,PressureMinIn,WindSpeedMaxMPH,WindSpeedAvgMPH,GustSpeedMaxMPH,PrecipitationSumIn
2013-3-1,64,54,41,46,43,38,91,69,47,30.36,30.25,14,5,0,0.00
2013-3-2,54,44,36,45,39,32,94,83,64,30.25,30.03,14,3,0,0.00
2013-3-3,52,40,29,32,25,20,75,56,31,30.27,30.09,13,5,0,0.00
2013-3-4,51,34,20,28,21,16,86,62,30,30.31,30.05,11,2,0,0.00
2013-3-5,46,36,28,34,27,20,87,70,49,30.05,29.77,8,2,0,0.00
2013-3-6,43,37,34,36,34,31,94,87,71,29.96,29.60,12,2,0,0.00
2013-3-7,53,41,29,34,30,26,87,67,39,30.10,29.96,10,3,0,0.00
2013-3-8,55,40,27,35,29,24,90,69,38,30.22,30.04,6,2,0,0.00
2013-3-9,62,42,25,34,26,20,90,59,22,30.47,30.21,9,2,0,0.00
2013-3-10,62,43,29,44,32,22,83,66,35,30.48,30.31,15,2,0,0.00
2013-3-11,57,46,39,43,40,36,92,79,59,30.39,30.23,6,1,0,0.00
2013-3-12,63,50,37,46,41,35,95,74,45,30.24,30.11,17,4,0,0.00
2013-3-13,70,53,42,47,42,38,89,69,37,30.21,30.09,13,2,0,0.00
2013-3-14,68,52,42,47,40,23,91,69,18,30.15,30.01,15,4,0,0.00
2013-3-15,62,52,42,46,43,38,88,71,51,30.20,30.12,8,3,0,0.00
2013-3-16,55,46,37,40,36,30,91,69,50,30.13,29.87,19,10,0,0.00
2013-3-17,48,41,34,31,28,25,76,60,45,30.19,30.01,21,11,0,0.00
2013-3-18,54,39,26,31,26,22,89,63,34,30.24,30.16,13,4,0,0.00
2013-3-19,49,38,28,37,29,23,91,71,49,30.22,29.81,5,1,0,0.00
2013-3-20,54,42,37,44,36,26,94,79,43,30.06,29.58,24,8,0,0.00
2013-3-21,48,40,35,32,29,25,90,65,46,30.24,30.06,19,11,0,0.00
2013-3-22,46,36,25,31,25,19,90,66,33,30.37,30.22,14,5,0,0.00
2013-3-23,48,36,27,28,25,22,86,66,39,30.40,30.28,10,2,0,0.00
2013-3-24,50,37,25,31,26,21,88,65,40,30.34,30.18,7,2,0,0.00
2013-3-25,57,43,30,33,28,24,81,59,38,30.19,29.96,8,2,0,0.00
2013-3-26,56,46,40,38,34,30,78,64,47,30.03,29.94,6,1,0,0.00
2013-3-27,62,49,36,46,40,33,89,71,46,30.00,29.89,9,2,0,0.00
2013-3-28,62,52,42,48,43,40,93,74,53,30.11,29.99,13,3,0,0.00
2013-3-29,66,56,47,50,46,41,92,71,47,30.20,30.11,9,2,0,0.00
2013-3-30,72,54,37,50,41,-100,94,69,39,30.24,30.05,10,2,0,0.00
2013-3-31,71,54,38,45,39,34,90,61,32,30.08,29.89,9,3,0,0.00